CDT,Max TemperatureF,Mean TemperatureF,Min TemperatureF,Max Dew PointF,MeanDew PointF,Min DewpointF,Max Humidity, Mean Humidity, Min Humidity, Max Sea Level PressureIn, Mean Sea Level PressureIn, Min Sea Level PressureIn, Max VisibilityMiles, Mean VisibilityMiles, Min VisibilityMiles, Max Wind SpeedMPH, Mean Wind SpeedMPH, Max Gust SpeedMPH,PrecipitationIn, CloudCover, Events, WindDirDegrees
2011-10-1,57,40,24,37,30,23,96,79,33,30.38,30.31,30.25,10,10,5,5,0,,0.00,0,,95
2011-10-2,70,48,25,44,32,24,96,68,29,30.27,30.23,30.15,10,10,1,8,1,,0.00,0,,266
2011-10-3,73,52,32,48,41,32,96,72,32,30.28,30.23,30.19,10,10,1,5,0,,0.00,0,,102
2011-10-4,76,56,37,49,44,35,96,69,33,30.28,30.23,30.17,10,9,4,6,1,,0.00,0,,192
2011-10-5,78,57,36,49,44,35,97,66,32,30.21,30.18,30.14,10,9,4,7,1,,0.00,0,,155
2011-10-6,75,56,38,49,45,36,95,66,33,30.23,30.19,30.16,10,9,1,8,1,,0.00,0,,155
2011-10-7,77,65,53,52,49,43,81,58,33,30.19,30.14,30.04,10,10,10,14,5,28,0.00,0,,163
2011-10-8,79,69,59,52,49,44,72,51,35,30.20,30.15,30.08,10,10,7,12,6,18,0.00,2,,179
2011-10-9,79,64,48,52,48,42,88,58,27,30.30,30.26,30.22,10,10,7,7,1,,0.00,0,,191
2011-10-10,74,55,36,52,45,35,95,68,40,30.24,30.13,30.00,10,8,0,10,2,18,0.00,0,Fog,145
2011-10-11,66,59,51,56,52,48,95,77,67,30.00,29.96,29.90,10,9,0,7,2,,0.00,5,Fog-Rain,154
2011-10-12,64,60,55,58,55,54,97,89,73,29.91,29.81,29.70,10,6,0,7,1,,0.00,8,Fog-Rain,128
2011-10-13,55,53,51,54,52,49,96,94,92,29.68,29.56,29.48,10,4,2,14,2,18,1.79,8,Rain,148
2011-10-14,47,45,43,44,38,32,87,75,56,29.53,29.49,29.47,10,10,10,21,12,31,0.01,8,Rain,286
2011-10-15,52,45,38,31,29,28,65,55,42,29.71,29.65,29.55,10,10,10,25,17,37,0.00,3,,286
2011-10-16,52,46,39,34,28,20,79,52,30,29.73,29.68,29.62,10,10,10,25,11,36,0.00,3,,268
2011-10-17,54,46,37,32,29,26,67,54,38,29.74,29.66,29.62,10,10,10,21,12,31,0.00,3,,275
2011-10-18,46,41,36,33,32,31,82,71,56,29.95,29.85,29.77,10,10,10,12,6,16,0.00,7,,325
2011-10-19,46,40,34,34,33,31,92,76,53,30.02,29.98,29.95,10,10,10,17,6,25,0.00,7,,2
2011-10-20,41,38,34,33,32,29,89,78,70,29.88,29.81,29.77,10,10,4,20,12,29,0.00,7,Rain,344
2011-10-21,52,39,26,33,27,21,95,72,29,30.01,29.97,29.89,10,10,10,8,3,,0.00,1,,276
2011-10-22,54,39,24,36,30,23,94,74,45,30.05,30.01,29.96,10,10,10,10,2,,0.00,0,,342
2011-10-23,54,38,23,45,34,22,95,82,56,29.98,29.85,29.73,10,9,5,13,2,20,0.04,4,Rain,204
2011-10-24,84,44,32,38,33,27,96,74,34,30.07,29.95,29.84,10,10,7,14,6,21,0.01,1,,277
2011-10-25,42,39,36,34,32,30,90,71,63,30.07,30.00,29.92,10,10,7,13,4,18,0.04,8,Rain,64
2011-10-26,46,38,29,35,32,28,95,83,54,30.04,30.01,29.97,10,10,10,12,3,,0.09,6,,348
2011-10-27,43,35,27,34,30,26,97,86,64,30.07,30.01,29.98,10,10,2,5,0,,0.01,6,Rain,250
2011-10-28,47,34,20,35,28,18,96,84,49,30.08,30.02,29.96,10,8,2,10,1,18,0.02,5,Rain,205
2011-10-29,45,32,20,36,26,18,96,81,48,30.04,30.00,29.96,10,8,0,8,1,,0.02,2,Fog,270
2011-10-30,42,33,24,36,30,22,96,83,61,30.03,29.92,29.83,10,8,1,8,2,20,0.06,6,Rain,123
2011-10-31,43,40,35,37,35,33,97,87,72,30.02,29.95,29.87,10,7,2,7,1,,0.02,8,,269